Home   Weather   Sundsvall   Past weeks
Flag for Sweden

Past Weather in Sundsvall, Sweden — Yesterday and Last 2 Weeks

Now
72 °F

Sunny.


Feels Like: 76 °F
Forecast: 69 / 55 °F
Wind: 3 mph from North

Location: Sundsvall-Harnosand Flygplats

Current Time: Jul 22, 2019 at 4:54:18 pm

Latest Report: Jul 22, 2019 at 3:50 pm


Visibility: 10 mi

Pressure: 29.92 "Hg

Humidity: 61%

Dew Point: 57 °F

Location of SundsvallLocation

Past Weather in Sundsvall — Graph

°F

Sundsvall Temperature Yesterday

Maximum temperature yesterday: 72 °F (at 2:50 pm)
Minimum temperature yesterday: 52 °F (at 2:20 am)
Average temperature yesterday: 63 °F

High & Low Weather Summary for the Past Weeks

 TemperatureHumidityPressure
High75 °F (Jul 10, 12:20 pm)100% (Jul 9, 12:20 am)29.98 "Hg (Jul 9, 12:20 am)
Low46 °F (Jul 9, 12:20 am)27% (Jul 10, 11:50 am)29.68 "Hg (Jul 7, 7:20 pm)
Average58 °F74%29.89 "Hg
* Reported Jul 7 3:20 pm — Jul 22 3:20 pm, Sundsvall. Weather by CustomWeather, © 2019

Note: Actual official high and low records may vary slightly from our data, if they occured in-between our weather recording intervals... More about our weather records

Advertising

Sundsvall Weather History for the Previous 24 Hours

Scroll right to see more
 ConditionsComfort  
Time TempWeatherWind HumidityBarometerVisibility
3:20 pm
Mon, Jul 22
72 °FPassing clouds.6 mph65%29.92 "HgN/A
2:50 pm70 °FPassing clouds.5 mph73%29.92 "HgN/A
1:50 pm68 °FPassing clouds.7 mph78%29.92 "HgN/A
1:20 pm68 °FSunny.7 mph83%29.92 "Hg10 mi
12:50 pm64 °FSunny.6 mph94%29.92 "Hg10 mi
12:20 pm64 °FSunny.6 mph94%29.95 "Hg10 mi
11:50 am63 °FBroken clouds.7 mph94%29.92 "HgN/A
11:20 am63 °FDrizzle. Partly sunny.5 mph94%29.95 "HgN/A
10:50 am63 °FLight rain. More clouds than sun.6 mph94%29.95 "HgN/A
10:20 am63 °FOvercast.5 mph94%29.95 "HgN/A
9:50 am63 °FLight rain. Partly sunny.2 mph94%29.95 "HgN/A
9:20 am63 °FLight rain. Partly sunny.2 mph88%29.95 "HgN/A
8:50 am63 °FSunny.No wind88%29.95 "Hg10 mi
8:20 am61 °FLight rain. Partly sunny.2 mph88%29.95 "HgN/A
7:50 am63 °FSunny.3 mph83%29.95 "Hg10 mi
7:20 am63 °FSunny.3 mph83%29.95 "Hg10 mi
6:50 am63 °FSunny.2 mph83%29.95 "Hg10 mi
6:20 am61 °FSunny.5 mph88%29.95 "Hg10 mi
5:50 am59 °FSunny.3 mph88%29.95 "Hg10 mi
5:20 am57 °FPassing clouds.5 mph94%29.95 "HgN/A
4:50 am57 °FPassing clouds.5 mph94%29.95 "HgN/A
4:20 am55 °FPassing clouds.3 mph100%29.95 "HgN/A
3:50 am55 °FScattered clouds.5 mph100%29.95 "HgN/A
2:50 am55 °FCool.3 mph100%29.95 "HgN/A
2:20 am55 °FPassing clouds.3 mph100%29.95 "Hg4 mi
1:50 am55 °FPassing clouds.3 mph100%29.95 "Hg3 mi
1:20 am57 °FPassing clouds.2 mph94%29.95 "HgN/A
12:50 am55 °FMostly cloudy.5 mph100%29.95 "HgN/A
12:20 am57 °FPassing clouds.2 mph100%29.95 "HgN/A
11:50 pm
Sun, Jul 21
57 °FPassing clouds.5 mph100%29.92 "HgN/A
11:20 pm57 °FPassing clouds.3 mph94%29.92 "HgN/A
10:50 pm59 °FPassing clouds.5 mph94%29.92 "HgN/A
10:20 pm61 °FClear.5 mph88%29.92 "Hg10 mi
9:50 pm61 °FSunny.5 mph83%29.92 "Hg10 mi
9:20 pm63 °FSunny.6 mph77%29.92 "Hg10 mi
8:50 pm64 °FSunny.6 mph78%29.92 "Hg10 mi
8:20 pm66 °FSunny.8 mph68%29.92 "Hg10 mi
7:50 pm68 °FSunny.7 mph64%29.92 "Hg10 mi
7:20 pm68 °FSunny.9 mph64%29.92 "Hg10 mi
6:50 pm68 °FSunny.10 mph69%29.92 "Hg10 mi
6:20 pm68 °FSunny.13 mph64%29.95 "Hg10 mi
5:50 pm68 °FSunny.14 mph60%29.95 "Hg10 mi
5:20 pm66 °FSunny.13 mph60%29.95 "Hg10 mi
4:50 pm70 °FSunny.15 mph53%29.95 "Hg10 mi
4:20 pm70 °FSunny.14 mph53%29.95 "Hg10 mi
Weather by CustomWeather, © 2019

See weather overview